Flag for U.S.A. Weather past 2 weeks in Dallas, Texas, U.S.A.

Now
80 °F

Passing clouds.


Feels Like: 82 °F
Forecast: 76 / 94 °F
Wind: 9 mph from South

Location: Dallas Love Field

Current Time: Aug 31, 2015 at 2:57:10 AM

Latest Report: Aug 31, 2015 at 1:53 AM


Visibility: 10 mi

Pressure: 29.94 "Hg

Humidity: 60%

Dew point: 65 °F

Location of DallasLocation

Historic Weather in Dallas — Graph

°F

Dallas temperature yesterday

Maximum temperature yesterday: 97 °F (at 2:53 PM)
Minimum temperature yesterday: 78 °F (at 6:53 AM)
Average temperature yesterday: 87 °F

Past Weeks' High & Low Weather Summary

 TemperatureHumidityPressure
High99 °F (Aug 24, 3:53 PM)93% (Aug 21, 4:53 AM)30.13 "Hg (Aug 21, 4:53 AM)
Low66 °F (Aug 20, 5:53 AM)21% (Aug 26, 3:53 PM)29.68 "Hg (Aug 18, 6:53 PM)
Average85 °F55%29.94 "Hg
* Reported Aug 16 12:53 AM — Aug 31 12:53 AM, Dallas, Weather by CustomWeather, © 2015

Note: Actual official high and low records may vary slightly from our data, if they occured in-between our weather recording intervals... More about our weather records

Advertising

Dallas weather history for previous 24 hours

 ConditionsComfort  
Time TempWeatherWind HumidityBarometerVisibility
12:53 AM
Mon, Aug 31
82 °FPassing clouds.10 mph55%29.93 "Hg10 mi
11:53 PM
Sun, Aug 30
83 °FPassing clouds.9 mph51%29.92 "Hg10 mi
10:53 PM84 °FClear.8 mph51%29.92 "Hg10 mi
9:53 PM86 °FClear.10 mph46%29.92 "Hg10 mi
8:53 PM88 °FScattered clouds.9 mph43%29.92 "Hg10 mi
7:53 PM90 °FPartly sunny.10 mph39%29.90 "Hg10 mi
6:53 PM92 °FPartly sunny.9 mph36%29.89 "Hg10 mi
5:53 PM95 °FBroken clouds.13 mph34%29.88 "Hg10 mi
4:53 PM97 °FPartly sunny.3 mph27%29.89 "Hg10 mi
3:53 PM97 °FBroken clouds.6 mph25%29.91 "Hg10 mi
2:53 PM97 °FBroken clouds.6 mph26%29.93 "Hg10 mi
1:53 PM96 °FPartly sunny.7 mph28%29.95 "Hg10 mi
12:53 PM93 °FPartly sunny.8 mph37%29.96 "Hg10 mi
11:53 AM91 °FPartly sunny.12 mph38%29.98 "Hg10 mi
10:53 AM88 °FPartly sunny.8 mph43%29.99 "Hg10 mi
9:53 AM84 °FBroken clouds.9 mph53%29.98 "Hg10 mi
8:53 AM80 °FPartly sunny.8 mph60%29.97 "Hg10 mi
7:53 AM79 °FPassing clouds.5 mph60%29.96 "Hg10 mi
6:53 AM78 °FPartly cloudy.7 mph64%29.96 "Hg10 mi
5:53 AM80 °FMostly cloudy.No wind60%29.94 "Hg10 mi
4:53 AM80 °FPartly cloudy.5 mph60%29.93 "Hg10 mi
3:53 AM81 °FPartly cloudy.3 mph56%29.93 "Hg10 mi
2:53 AM80 °FPartly cloudy.No wind60%29.92 "Hg10 mi
Weather by CustomWeather, © 2015

See weather overviewHow to use our weather pages